Regional Weather Roundup
Issued by NWS Kansas City/Pleasant Hill, MO

Home | Current Version | Previous Version | Text Only | Print | Product List | Glossary On
Versions: 1 2 3 4 5 6 7 8 9 10 11 12 13 14 15 16 17 18 19 20 21 22 23 24 25 26 27 28 29 30 31 32 33 34 35 36 37 38 39 40 41 42 43 44 45 46 47 48 49 50
000
ASUS43 KEAX 301710
RWREAX

WEATHER ROUNDUP FOR EASTERN KANSAS AND NORTHWEST MISSOURI
NATIONAL WEATHER SERVICE KANSAS CITY/PLEASANT HILL MO
1200 PM CDT THU JUL 30 2015

KSZ040-057-103>105-MOZ028-029-037-043-301800-
...KANSAS CITY METROPOLITAN AREA...

CITY           SKY/WX    TMP DP  RH WIND       PRES   REMARKS
K.C. INTL      PTSUNNY   81  63  54 W5        30.23S
K.C. DOWNTOWN  PTSUNNY   84  67  56 CALM      30.21F
LEES SUMMIT    CLOUDY    84  58  40 S6        30.23S
OLATHE - IXD   CLOUDY    82  60  47 S5        30.24S
OLATHE - OJC   CLOUDY    81  55  40 S6        30.23S
LAWRENCE       CLOUDY    82  60  47 E3        30.23S

$$

MOZ001>008-011>017-020>025-030>033-038>040-044>046-053-054-301800-
...NORTHERN AND CENTRAL MISSOURI...

CITY           SKY/WX    TMP DP  RH WIND       PRES   REMARKS
ST. JOSEPH     SUNNY     82  65  56 VRB3      30.22S
MOSBY          MOSUNNY   82  57  42 CALM      30.22S
WARRENSBURG    PTSUNNY   82  61  47 CALM      30.22S
WHITEMAN AFB   MOSUNNY   87  56  35 VRB1      30.21S
CLINTON          N/A     84  57  39 E3        30.22S
SEDALIA        MOSUNNY   86  54  33 S5        30.23R
WARSAW         NOT AVBL
CHILLICOTHE      N/A     85  62  46 W7        30.22S
KIRKSVILLE     SUNNY     84  59  42 W8        30.22R

$$

MOZ041-047>049-056>058-063>065-088>090-097-301800-
...EASTERN AND SOUTHERN MISSOURI...

CITY           SKY/WX    TMP DP  RH WIND       PRES   REMARKS
ST. LOUIS INTL MOSUNNY   89  59  36 NW8       30.19R
SPIRIT OF STL  MOSUNNY   86  61  42 NW6       30.17S
COLUMBIA       MOSUNNY   84  57  39 SE3       30.21S
JEFFERSON CITY SUNNY     85  52  32 SE3       30.19S
ROLLA          SUNNY     83  57  41 VRB3      30.21S
OSAGE BEACH    SUNNY     84  57  39 E6        30.22S
SPRINGFIELD    MOSUNNY   84  54  35 E9        30.22S
BRANSON        MOSUNNY   82  59  44 E8        30.24R
JOPLIN         MOSUNNY   86  64  47 E6        30.21S
WEST PLAINS    SUNNY     82  57  42 NE8       30.24R

$$

IAZ060-094-KSZ022-034>040-054-083-096-NEZ052-066-093-301800-
...KANSAS...SOUTHEAST NEBRASKA AND IOWA...

CITY           SKY/WX    TMP DP  RH WIND       PRES   REMARKS
TOPEKA         CLOUDY    82  65  56 CALM      30.23S
MANHATTAN      MOSUNNY   82  64  54 SW9       30.24S
EMPORIA          N/A     74  67  78 W3        30.24F
CHANUTE        CLOUDY    85  66  53 E6        30.21F
WICHITA        LGT RAIN  71  69  93 SE8       30.22F
OMAHA          MOSUNNY   86  55  34 VRB6      30.20S
LINCOLN        SUNNY     87  57  35 SW15      30.21F
FALLS CITY     SUNNY     83  64  52 VRB5      30.22S
LAMONI         SUNNY     83  63  50 W12       30.21S
DES MOINES     MOSUNNY   85  58  39 W15       30.17S

$$



USA.gov is the U.S. government's official web portal to all federal, state and local government web resources and services.